Content
SEND FEEDBACK

Daily
Averages
Monthly
Summary
French Polynesia

PAPEETE, FRENCH POLYNESIA


Home > Oceania > French Polynesia
Elevation: 2 meters     Latitude: 17 33S     Longitude: 149 36W

WEATHER
 
SELECT A DAY
Number of Records: 217,333;   Date Range: 6/30/96 - 12/17/14
 
SHARE

PRINT THIS DATA

[ ← Previous Day ]
WEATHER ALMANAC - 22 MARCH, 2013
[ Next Day → ]
[ °F ]   °C
Weather ElementAverageHighLow
Temperature27.9 °C31 °C (11:30 am)24.4 °C (5:00 am)
Dewpoint22.2 °C23.3 °C (5:00 pm)20 °C (5:30 am)
Humidity70.5 %83 % (2:00 am)56 % (2:00 pm)
Barometer1011.9 hPa1014.2 hPa (8:30 am)1010.2 hPa (1:30 pm)
Wind Speed9.5 km/h39.6 km/h (2:00 pm)
Weather ElementAverage
Visibility12.9 km
Wind DirectionENE (79.6 °)

Weather ElementTotal
Precipitation---
Cooling Degree Days9.4 (Base 18.3)
Growing Degree Days17.7 (Base 10)
Averaged from 56 records on 22 March, 2013
WEATHER CONDITIONS BREAKOUT
WIND DIRECTION BREAKOUT
WEATHER BY HOUR - 22 MARCH, 2013
[ °F ]   °C
Local TimeTemperatureDewpointHumidityBarometerVisibilityWind DirectionWind SpeedGust SpeedPrecipitationEventsConditions
12:30 AM26 °C22 °C78 %1012.2 hPa10 kmVariable3.7 km/hPartly Cloudy
1:00 AM26 °C22 °C78 %1012.2 hPa10 kmSSE (160°)5.6 km/hPartly Cloudy
1:30 AM26 °C22 °C78 %1011.2 hPa10 kmVariable3.7 km/hPartly Cloudy
2:00 AM25.6 °C21.7 °C74 %1011.9 hPa19.3 kmEast (90°)10.8 km/hScattered Clouds
2:00 AM25 °C22 °C83 %1011.2 hPa10 kmEast (90°)5.6 km/hPartly Cloudy
2:30 AM25 °C21 °C78 %1011.2 hPa10 kmEast (100°)5.6 km/hPartly Cloudy
3:00 AM25 °C21 °C78 %1011.2 hPa10 kmVariable3.7 km/hPartly Cloudy
3:30 AM25 °C21 °C78 %1011.2 hPa10 kmCalm
4:00 AM25 °C21 °C78 %1011.2 hPa10 kmEast (100°)7.4 km/h
4:30 AM25 °C21 °C78 %1011.2 hPa10 kmEast (90°)7.4 km/h
5:00 AM24.4 °C20.6 °C75 %1011.9 hPa59.5 kmESE (110°)14.3 km/hClear
5:00 AM25 °C21 °C78 %1011.2 hPa10 kmESE (110°)7.4 km/h
5:30 AM25 °C20 °C74 %1012.2 hPa10 kmCalm
6:00 AM25 °C20 °C74 %1012.2 hPa10 kmVariable3.7 km/h
6:08 AM25 °C21 °C78 %1012.2 hPa10 kmVariable3.7 km/hPartly Cloudy
6:30 AM25 °C21 °C78 %1013.2 hPa10 kmEast (100°)5.6 km/hPartly Cloudy
7:00 AM27 °C22 °C74 %1013.2 hPa10 kmVariable3.7 km/hPartly Cloudy
7:30 AM28 °C23 °C74 %1013.2 hPa10 kmCalmPartly Cloudy
8:00 AM28.9 °C22.8 °C63 %1013.9 hPa30.6 kmNorth1.9 km/hPartly Cloudy
8:00 AM29 °C23 °C70 %1013.2 hPa10 kmCalmPartly Cloudy
8:30 AM29 °C23 °C70 %1014.2 hPa10 kmVariable1.9 km/hPartly Cloudy
9:00 AM30 °C23 °C66 %1014.2 hPa10 kmNorth (10°)7.4 km/hPartly Cloudy
9:30 AM30 °C23 °C66 %1014.2 hPa10 kmNorth (350°)9.3 km/hPartly Cloudy
10:00 AM30 °C23 °C66 %1013.2 hPa10 kmWNW (300°)7.4 km/hPartly Cloudy
10:30 AM30 °C22 °C62 %1013.2 hPa10 kmVariable5.6 km/hPartly Cloudy
11:00 AM30 °C22.8 °C58 %1013.2 hPa30.6 kmNE (50°)25.3 km/hScattered Clouds
11:00 AM30 °C23 °C66 %1013.2 hPa10 kmNE (50°)13 km/hPartly Cloudy
11:30 AM31 °C23 °C62 %1012.2 hPa10 kmNorth (10°)11.1 km/hPartly Cloudy
12:00 PM31 °C22 °C58 %1012.2 hPa10 kmNW (310°)5.6 km/hPartly Cloudy
12:30 PM30 °C23 °C66 %1011.2 hPa10 kmNE (40°)20.4 km/hPartly Cloudy
1:00 PM31 °C23 °C62 %1011.2 hPa10 kmNE (40°)20.4 km/hPartly Cloudy
1:30 PM31 °C22 °C58 %1010.2 hPa10 kmNE (40°)16.7 km/hPartly Cloudy
2:00 PM30.6 °C22.8 °C56 %1010.8 hPa30.6 kmNE (40°)39.6 km/hScattered Clouds
2:00 PM31 °C23 °C62 %1010.2 hPa10 kmNE (40°)20.4 km/hPartly Cloudy
2:30 PM30 °C23 °C66 %1010.2 hPa10 kmNE (40°)18.5 km/hPartly Cloudy
3:00 PM31 °C23 °C62 %1010.2 hPa10 kmNE (50°)20.4 km/hScattered Clouds
3:30 PM29 °C23 °C70 %1010.2 hPa10 kmNE (50°)22.2 km/hScattered Clouds
4:00 PM30 °C23 °C66 %1010.2 hPa10 kmNE (50°)22.2 km/hScattered Clouds
4:30 PM30 °C23 °C66 %1010.2 hPa10 kmNE (40°)18.5 km/hScattered Clouds
5:00 PM29.4 °C23.3 °C63 %1010.8 hPa30.6 kmNE (40°)16.7 km/hPartly Cloudy
5:00 PM29 °C23 °C70 %1010.2 hPa10 kmNE (40°)16.7 km/hScattered Clouds
5:30 PM29 °C23 °C70 %1010.2 hPa10 kmNE (40°)18.5 km/hPartly Cloudy
6:00 PM29 °C22 °C66 %1011.2 hPa10 kmNE (50°)9.3 km/hPartly Cloudy
6:30 PM29 °C22 °C66 %1011.2 hPa10 kmSouth (170°)7.4 km/hMostly Cloudy
7:00 PM28 °C23 °C74 %1011.2 hPa10 kmSouth (180°)7.4 km/hMostly Cloudy
7:30 PM28 °C23 °C74 %1012.2 hPa10 kmCalmPartly Cloudy
8:00 PM27.8 °C22.8 °C67 %1012.5 hPa19.3 kmWNW (290°)3.7 km/hScattered Clouds
8:00 PM28 °C23 °C74 %1012.2 hPa10 kmVariable3.7 km/hPartly Cloudy
8:30 PM27 °C22 °C74 %1012.2 hPa10 kmSouth (170°)5.6 km/hPartly Cloudy
9:00 PM27 °C22 °C74 %1012.2 hPa10 kmVariable3.7 km/hPartly Cloudy
9:30 PM27 °C22 °C74 %1012.2 hPa10 kmSouth (170°)7.4 km/hPartly Cloudy
10:00 PM27 °C22 °C74 %1012.2 hPa10 kmSouth (170°)7.4 km/hPartly Cloudy
10:30 PM27 °C22 °C74 %1012.2 hPa10 kmSSE (160°)5.6 km/hPartly Cloudy
11:00 PM26.1 °C22.2 °C73 %1012.9 hPa19.3 kmSouth (180°)5.6 km/hScattered Clouds
11:00 PM26 °C22 °C78 %1012.2 hPa10 kmSouth (180°)5.6 km/hPartly Cloudy
11:30 PM26 °C22 °C78 %1012.2 hPa10 kmSSE (160°)5.6 km/hPartly Cloudy
Hourly data recorded from NTAA, located 0 kilometers away from Papeete, French Polynesia







STORIES FROM OUR PARTNERS